Regional Weather Roundup
Issued by NWS

Home | Current Version | Previous Version | Graphics & Text | Print | Product List | Glossary Off
Versions: 1 2 3 4 5 6 7 8 9 10 11 12 13 14 15 16 17 18 19 20 21 22 23 24 25 26 27 28 29 30 31 32 33 34 35 36 37 38 39 40 41 42 43 44 45 46 47 48 49 50

000
ASUS43 KMKX 260300
RWRWI

WISCONSIN REGIONAL WEATHER ROUNDUP
NATIONAL WEATHER SERVICE MILWAUKEE/SULLIVAN WI
1000 PM CDT MON SEP 25 2017

NOTE: "FAIR" INDICATES FEW OR NO CLOUDS BELOW 12,000 FEET WITH NO
SIGNIFICANT WEATHER AND/OR OBSTRUCTIONS TO VISIBILITY.

WIZ001-002-006>008-014>016-023>028-260400-
NORTHWEST WISCONSIN

CITY           SKY/WX    TMP DP  RH WIND       PRES   REMARKS
SUPERIOR ARPT  CLOUDY    59  56  89 N5        30.00S
ASHLAND        CLOUDY    59  57  93 E3        30.00F
HAYWARD        CLOUDY    57  55  93 CALM      29.99S
SIREN          CLOUDY    57  55  94 NE3       29.99F
CUMBERLAND     CLOUDY    55  54  94 NE7       29.98F
RICE LAKE      CLOUDY    58  56  93 N3        29.99F
CHETEK         CLOUDY    60  59  97 N6        29.97F
LADYSMITH      CLOUDY    61  59  92 CALM      30.00S
EAU CLAIRE     NOT AVBL
MENOMONIE      CLOUDY    63  59  86 N5        29.97S
NEW RICHMOND   CLOUDY    58  56  92 N6        29.98F
OSCEOLA        CLOUDY    59  59 100 N3        30.01S
$$

WIZ003>005-009-010-017-018-260400-
NORTH CENTRAL WISCONSIN

CITY           SKY/WX    TMP DP  RH WIND       PRES   REMARKS
MANITOWISH WTR NOT AVBL
ARBOR VITAE    CLOUDY    62  61  96 N8        29.96S
WOODRUFF       CLOUDY    62  61  96 N8        29.96S
RHINELANDER    MOCLDY    63  63 100 CALM      29.98R
EAGLE RIVER    PTCLDY    61  61 100 NE5       29.96S
LAND O LAKES   CLOUDY    61  60  97 N6        29.99F
PHILLIPS       CLOUDY    59  59 100 N6        29.98R
TOMAHAWK       FOG       60  59  96 CALM      29.97S VSB 3/4
MEDFORD        MOCLDY    64  62  96 NW3       29.96S
MERRILL        MOCLDY    67  65  93 CALM      29.96S
$$

WIZ029-030-035-036-043>047-260400-
CENTRAL WISCONSIN

CITY           SKY/WX    TMP DP  RH WIND       PRES   REMARKS
WAUSAU         CLOUDY    66  65  96 E6        29.95S
MOSINEE        MOCLDY    64  64 100 NE3       29.98S
MARSHFIELD     PTCLDY    64  60  87 SE5       29.95S
STEVENS POINT  LGT RAIN  69  63  81 N3        29.96S
WAUPACA        CLOUDY    71  66  85 CALM      29.95R
WAUTOMA        PTCLDY    68  64  87 CALM      29.94S
WISC RAPIDS    CLOUDY    66  65  96 CALM      29.95S
CAMP DOUGLAS   LGT RAIN  68  63  83 CALM      29.92F
$$

WIZ011>013-019>022-031-037>040-048>050-260400-
NORTHEAST WISCONSIN

CITY           SKY/WX    TMP DP  RH WIND       PRES   REMARKS
ANTIGO         LGT RAIN  64  63  96 CALM      29.99R
SHAWANO        MOCLDY    76  65  68 SW5       29.94R
OCONTO         CLEAR     71  64  78 CALM      29.91F
STURGEON BAY   CLEAR     73  61  65 S8        29.94S
GREEN BAY      CLEAR     69  63  81 W6        29.94R
MANITOWOC      CLEAR     70  62  76 S5        29.94S
APPLETON       PTCLDY    72  57  60 SW7       29.93F
CLINTONVILLE   CLOUDY    73  63  68 W8        29.94S
OSHKOSH        CLEAR     73  61  65 S3        29.93R
$$

WIZ032>034-041-042-053>061-260400-
SOUTHWEST WISCONSIN

CITY           SKY/WX    TMP DP  RH WIND       PRES   REMARKS
LA CROSSE      CLOUDY    70  67  90 CALM      29.94F
SPARTA         MOCLDY    64  63  94 W6        29.96R
VIROQUA        CLOUDY    65  65 100 W7        29.97R
BOSCOBEL       HVY RAIN  68  66  93 S9        29.99R VSB 1
PRAIRIE DU CHI CLOUDY    68  64  85 NW6       29.96S
PLATTEVILLE    PTCLDY    70  66  88 W7        29.97R
$$

WIZ056-057-062-063-064-067-068-260400-
SOUTH CENTRAL WISCONSIN

CITY           SKY/WX    TMP DP  RH WIND       PRES   REMARKS
REEDSBURG      CLEAR     65  65 100 CALM      29.93S
BARABOO/DELLS  CLEAR     66  61  84 CALM      29.93F
LONE ROCK      MOCLDY    65  64  97 CALM      29.93R
MINERAL POINT  CLEAR     68  64  88 NE5       29.94S
MADISON        PTCLDY    68  63  84 CALM      29.93S
MIDDLETON      CLEAR     67  62  85 E3        29.94S
WATERTOWN      PTCLDY    72  60  64 NW3       29.93S
MONROE         CLEAR     70  61  73 N6        29.94S
JANESVILLE     CLEAR     72  59  64 SE6       29.92F
$$

WIZ051-052-058>065-066-070>072-260400-
SOUTHEAST WISCONSIN

CITY           SKY/WX    TMP DP  RH WIND       PRES   REMARKS
MILWAUKEE      PTCLDY    75  61  61 S7        29.94S
WAUKESHA       NOT AVBL
MILWAUKEE/TIMM CLEAR     73  54  49 S5        29.95S
RACINE         CLEAR     71  64  78 S3        29.96S
BURLINGTON     CLEAR     65  61  85 CALM      29.94S
KENOSHA        CLEAR     74  60  61 S5        29.95S
FOND DU LAC    CLEAR     75  56  51 S9        29.93S
SHEBOYGAN      CLEAR     66  64  93 CALM      29.94S
WEST BEND        N/A     66  59  77 CALM      29.95S
JUNEAU         CLEAR     73  58  60 SW7       29.95R
$$

LSZ147-162-260400-
LAKE SUPERIOR

STATION/POSITION TIME  TEMP    WIND        PRES    WAVE
                       AIR SEA DIR/SP/G            HT/PER
                 (UTC) (F)     (DEG/KT/KT) (MB)    (FT/S)
W MID LAKE BUOY  0150   58 56   70/ 12/ 16 1016.3R   1/ 2
DEVILS ISLAND    0200   60      70/ 13/ 15 1016.3R
SAXON HARBOR     0230   61      90/  3/  7 1015.2S
$$

LMZ867-665-643>646-260400-
LAKE MICHIGAN

STATION/POSITION TIME  TEMP    WIND        PRES    WAVE
                       AIR SEA DIR/SP/G            HT/PER
                 (UTC) (F)     (DEG/KT/KT) (MB)    (FT/S)
N MID LAKE BUOY  0150   69 68  160/  8/ 10 1014.2R   1
NORTHPORT PIER   0240   74     180/  4/  9 1013.2S
KEWAUNEE LAKESHO 0230   65     180/  4/  4 1013.0S
SHEBOYGAN LAKESH 0200   73     200/  8/ 10 1013.3S
PORT WASHINGTON  0240   71     160/  2/  3 1014.6S
ATWATER BUOY     0109   68 61  180/  8/ 10 1014.1R
MILWAUKEE LAKESH 0230   69      40/  1/  1   N/A
S MID LAKE BUOY  0150   75 71  150/  4/  4 1014.1R   0
KENOSHA   LAKESH 0200   74     170/  7/  8 1013.5
$$

TC  - TEMPERATURE IN CELSIUS
VSB - VISIBILITY IN STATUTE MILES
WCI - WIND CHILL INDEX
HX  - HEAT INDEX





USA.gov is the U.S. government's official web portal to all federal, state and local government web resources and services.